Location: Chircca
(13.7944°S, 72.0608°W)
Time: 06:15:42
(UTC+00:00)

SEDSat Delta rocket - Pass Details

Date: 14 July 2020
Orbit: 533 x 1001 km, 31.4° (Epoch: 14 August)

Event Time Altitude Azimuth Distance (km) Brightness Sun altitude
Rises 10:43:44 0° 297° (WNW) 3,619 6.6 -7.4°
Reaches altitude 10° 10:46:31 10° 295° (WNW) 2,626 5.9 -6.8°
Maximum altitude 10:52:51 74° 210° (SSW) 889 3.7 -5.3°
Drops below altitude 10° 10:58:26 10° 125° (SE) 2,325 6.5 -4.1°
Sets 11:00:45 0° 123° (ESE) 3,178 7.3 -3.5°
